WARATAH SEED-1

Last updated on Mon Sep 16 2024 00:02:03 GMT+0000 (Coordinated Universal Time)

1 60469U 24149B 24258.91494461 .00019642 00000+0 97079-3 0 9990 2 60469 97.4371 333.9747 0001814 347.4615 12.6574 15.17881717 4418
UTC large
Height (km)
Speed (km/s)
/
Latitude / Longitude
Inclination (degrees)
Orbital Period (minutes)
Azimuth
Elevation
Range (km)
Doppler Factor

Next 0 passes for location: London (51.5072 / 0.1276)

Sorry there are no passes over London.